www.pogodaiklimat.ru

Погода и климат >> Архив погоды >> Канада >> Stefansson Island


ПОГОДА в Stefansson Island

  • Прогноз погоды в Stefansson Island
  • Монитор погоды в Stefansson Island
  • Климат города

АРХИВ ПОГОДЫ в Stefansson Island

Время (UTC), дата Ветер
(напр.,м/с)
 
Видим.   Явления Облачность Т
(С)
Тd
(С)
f
(%)
Тe
(С)
Тes
(С)
Комфортность P
(гПа)
Po
(гПа)
Тmin
(С)
Tmax
(С)
R
(мм)
R24
(мм)
S
(см)
03 15.10 ЮЗ 5 н/о н/о -18.4 -20.2 86 -28 -28 1006.3 1004.8
06 15.10 ЮЗ 4 н/о н/о -18.8 -20.6 86 -27 -27 1005.8 1004.3 -19.9 -13.3
09 15.10 ЮЗ 4 н/о н/о -21.1 -23.2 83 -30 -30 1005.4 1003.9
12 15.10 ЮЗ 4 н/о н/о -21.7 -23.8 83 -31 -31 опасность
обморожения
1005.2 1003.7 -22.2 -13.3 11
15 15.10 ЮЗ 3 н/о н/о -21.6 -23.7 83 -30 -30 1005.0 1003.5
18 15.10 ЮВ 2 н/о {осадки} н/о -19.3 -21.0 86 -24 -24 1004.7 1003.2 -22.3 -17.3 0.5
21 15.10 ЮВ 2 н/о н/о -19.6 -21.9 82 -25 -25 1004.6 1003.1 0.3
00 16.10 В 3 н/о н/о -19.8 -21.7 85 -27 -27 1004.3 1002.8 -22.3 -17.5 0.3
03 16.10 ЮВ 2 н/о н/о -17.9 -19.5 87 -23 -23 1004.1 1002.6
06 16.10 ЮВ 3 н/о н/о -17.2 -19.0 86 -24 -24 1003.4 1001.9 -22.3 -16.0
09 16.10 В 2 н/о н/о -15.4 -16.9 88 -21 -21 1003.0 1001.5
12 16.10 ЮВ 6 н/о н/о -14.4 -16.0 88 -24 -24 1002.6 1001.1 -22.3 -16.0 9
15 16.10 ЮВ 7 н/о н/о -16.0 -17.7 87 -27 -27 1002.2 1000.7
18 16.10 ЮВ 5 н/о н/о -13.0 -14.6 88 -21 -21 1001.3 999.8 -22.3 -13.0
21 16.10 ЮВ 5 н/о н/о -15.6 -17.3 87 -25 -25 1000.2 998.7
00 17.10 ЮВ 12 н/о н/о -13.0 -14.4 89 -25 -25 998.7 997.2 -18.0 -12.3
03 17.10 Ю 14 н/о н/о -11.8 -13.0 91 -24 -24 996.8 995.3
06 17.10 Ю 12 н/о н/о -10.4 -11.5 92 -22 -22 997.5 996.1 -18.0 -9.6 5
09 17.10 Ю 11 н/о н/о -10.0 -11.1 92 -21 -21 998.8 997.3
12 17.10 Ю 11 н/о н/о -10.0 -11.1 92 -21 -21 999.3 997.9 -13.5 -9.6 39
15 17.10 Ю 13 н/о н/о -10.2 -11.3 92 -22 -22 999.8 998.4
18 17.10 Ю 11 н/о н/о -9.0 -10.0 92 -20 -20 1000.9 999.5 -15.9 -8.9
21 17.10 Ю 6 н/о н/о -8.5 -9.5 92 -17 -17 1002.0 1000.6
00 18.10 ЮВ 4 н/о н/о -8.9 -9.9 92 -16 -16 1003.1 1001.7 -10.8 -8.4
03 18.10 Ю 8 н/о н/о -8.5 -9.5 92 -18 -18 1003.4 1002.0
06 18.10 Ю 8 н/о н/о -8.0 -9.2 91 -17 -17 1004.2 1002.8 -10.8 -7.8 8
09 18.10 Ю 4 н/о н/о -9.4 -10.5 92 -16 -16 1005.3 1003.9
12 18.10 Ю 4 н/о н/о -9.7 -10.8 92 -17 -17 1006.1 1004.6 -9.8 -7.8 31
15 18.10 ЮВ 2 н/о н/о -11.5 -12.6 92 -16 -16 1006.2 1004.7
18 18.10 В 4 н/о н/о -10.8 -12.1 90 -17 -17 1006.2 1004.7 -11.6 -7.9
21 18.10 ЮВ 5 н/о н/о -8.7 -9.7 92 -17 -17 1006.6 1005.1
00 19.10 ЮВ 5 н/о н/о -8.9 -9.9 92 -16 -16 1007.0 1005.5 -12.9 -8.4
03 19.10 Ю 5 н/о н/о -8.9 -10.0 92 -17 -17 1007.0 1005.5
06 19.10 ЮВ 3 н/о н/о -10.7 -11.8 92 -16 -16 1007.3 1005.8 -12.9 -7.9 7
09 19.10 ЮВ 4 н/о н/о -12.1 -13.4 90 -19 -19 1007.8 1006.3
12 19.10 ЮВ 2 н/о н/о -12.9 -14.1 91 -18 -18 1007.9 1006.4 -14.0 -7.9 29
15 19.10 ЮВ 3 н/о {осадки} н/о -11.2 -12.4 91 -17 -17 1008.2 1006.7 0.2
18 19.10 ЮВ 2 н/о {осадки} н/о -11.6 -12.9 90 -15 -15 1008.5 1007.0 -14.0 -10.4 0.2
21 19.10 ЮВ 3 н/о {осадки} н/о -9.9 -11.1 91 -15 -15 1009.1 1007.6 0.2
00 20.10 ЮВ 4 н/о {осадки} н/о -9.6 -10.7 92 -17 -17 1009.5 1008.0 -14.0 -9.6 0.2
03 20.10 ЮВ 4 н/о н/о -9.0 -9.9 93 -16 -16 1009.7 1008.2
06 20.10 ЮВ 4 н/о н/о -10.2 -11.6 89 -17 -17 1010.4 1008.9 -14.0 -8.6
09 20.10 ЮВ 4 н/о н/о -9.9 -11.1 91 -17 -17 1011.0 1009.5
12 20.10 ЮВ 3 н/о н/о -9.8 -11.2 89 -15 -15 1011.6 1010.1 -10.4 -8.6 29
15 20.10 ЮВ 4 н/о н/о -9.3 -10.5 91 -16 -16 1011.8 1010.3
18 20.10 ЮВ 3 н/о н/о -9.3 -10.4 92 -15 -15 1012.5 1011.0 -11.7 -8.9
21 20.10 ЮВ 4 н/о н/о -9.1 -10.3 91 -16 -16 1012.8 1011.3
00 21.10 ЮВ 4 н/о н/о -10.1 -11.3 91 -17 -17 1013.2 1011.7 -10.2 -8.9
03 21.10 ЮВ 3 н/о н/о -10.8 -12.0 91 -17 -17 1013.5 1012.0
06 21.10 ЮВ 5 н/о н/о -11.9 -13.1 91 -20 -20 1014.1 1012.6 -15.5 -8.9
09 21.10 В 7 н/о н/о -9.5 -11.2 87 -18 -18 1014.4 1012.9
12 21.10 В 7 н/о н/о -9.3 -10.8 89 -19 -19 1014.5 1013.0 -15.5 -8.9 30
15 21.10 В 7 н/о н/о -10.4 -11.8 89 -20 -20 1014.7 1013.2
18 21.10 В 7 н/о н/о -11.3 -12.7 89 -21 -21 1014.8 1013.3 -15.5 -9.0
21 21.10 В 8 н/о н/о -11.4 -12.8 89 -21 -21 1014.4 1012.9
00 22.10 В 8 н/о н/о -11.8 -13.2 89 -22 -22 1013.9 1012.4 -14.1 -9.1

 

Местоположение метеостанции Stefansson Island (Канада): широта 73.77 долгота -105.20 высота над уровнем моря 11 м.

В архиве по умолчанию представлена погода в Stefansson Island за последнюю неделю. Архивные данные за месяц целиком и за предыдущие месяцы, начиная с января 2011 года, Вы можете получить, выбрав интересующий диапазон дат из раскрывающегося списка и нажав кнопку "Ввод!".

Внимание! Время в таблицах - всемирное. Для получения местного времени необходимо прибавить поправку, которая в Stefansson Island равна -7 ч.

Смотрите также архив погоды в соседних городах и на ближайших метеорологических станциях:

Погода в Resolute Airport (Канада) (326 км)
Погода в Resolute Cs (Канада) (326 км)
Погода в Aulvik Ntl Park (Канада) (453 км)
Погода в Mould Bay Cs (Канада) (488 км)
Погода в Mould Bay, N. W. T. (Канада) (488 км)
Погода в Cambridge Bay Gsn (Канада) (519 км)
Погода в Cambridge Bay Arpt (Канада) (519 км)
Погода в Cape Peel West (Канада) (535 км)
Погода в Holman (Канада) (542 км)
Погода в Isachsen (aut) (Канада) (559 км)

Пояснения к столбцам:

Ветер - указаны скорость ветра в м/с - средняя за 10 мин, порывы в срок и между сроками (в фигурных скобках) и направление, откуда дует ветер: С - северный, СВ - северо-восточный, В - восточный, ЮВ - юго-восточный, Ю - южный, ЮЗ - юго-западный, З - западный, СЗ - северо-западный.
Видимость - горизонтальная дальность видимости в метрах или километрах. При видимости от 1 до 10 км при отсутствии осадков обычно наблюдается дымка, при ухудшении видимости до 1 км и менее - туман. В сухую погоду видимость может ухудшаться дымом, пылью или мглою.
Явления - указаны атмосферные явления, наблюдавшиеся в срок или в последний час перед сроком; фигурными скобками обозначены явления, наблюдавшиеся между сроками (за 1-3 часа до срока); квадратными скобками обозначены град или гололедные отложения с указанием их диаметра в мм.
Облачность - указаны через наклонную черту общая и нижняя облачность в баллах и высота нижней границы облаков в метрах; квадратными скобками обозначены формы облаков: Ci - перистые, Cs - перисто-слоистые, Cc - перисто-кучевые, Ac - высококучевые, As - высокослоистые, Sc - слоисто-кучевые, Ns - слоисто-дождевые, Cu - кучевые, Cb - кучево-дождевые. Подробнее классификацию облаков см. в Атласе облаков (PDF).
T - Температура воздуха - температура, измеренная на высоте 2 м над землей.
Td - Температура точки росы - температура, при понижении до которой содержащийся в воздухе водяной пар достигнет насыщения.
f - Относительная влажность воздуха - влажноcть воздуха, измеренная на высоте 2 м над землей.
Te - Эффективная температура - температура, которую ощущает одетый по сезону человек в тени. Характеристика душности погоды. При расчете учитывается влияние влажности воздуха и скорости ветра на теплоощущения человека.
Tes - Эффективная температура на солнце - температура, которую ощущает человек, с поправкой на солнечный нагрев. Характеристика знойности погоды. Зависит от высоты солнца над горизонтом, облачности и скорости ветра. Ночью, в пасмурную погоду, а также при ветре 12 м/с и более поправка равна нулю.
P - Атмосферное давление - приведенное к уровню моря атмосферное давление.
Po - Атмосферное давление - измеренное на уровне метеостанции атмосферное давление.
Tmin - Минимальная температура - минимум температуры воздуха на высоте 2 м над землей.
Tmax - Максимальная температура - максимум температуры воздуха на высоте 2 м над землей.
R - Количество осадков - Количество выпавших осадков за период времени, мм. При наведении курсора мыши на число - период времени, за который выпало указанное количество осадков.
R24 - Количество осадков - Количество выпавших осадков за 24 часа, мм.
S - Снежный покров - Высота снежного покрова, см. При наведении курсора мыши на число - состояние снежного покрова и степень покрытия местности в баллах.